Terug naar catalogus

SPACEVAN-001

ActiefCommunicatieSSO
NORAD 58295·PAYLOAD·🇫🇷 France

Gelanceerd Nov 11, 2023 vanaf Vandenberg Space Force Base

Loading…

Volgende Passages (komende 24 uur)

TLE

VersSource: Space-Track

Epoch: Sep 14, 2026, 14:36 UTC

1 58295U 23174AR  26257.60842601  .00029913  00000-0  36432-3 0  9990
2 58295  97.4006 358.2888 0008001 101.2810 258.9347 15.60436619160074

Volg SPACEVAN-001 in realtime met AllMySat

Download on the App Store